Tracking 22079 objects as of 5-Dec-2020
HD Live streaming from Space Station
objects crossing your sky now

AYAME 1 (ECS 1)

Track AYAME 1 (ECS 1) now!
AYAME 1 (ECS 1) is classified as:


NORAD ID: 11261
Int'l Code: 1979-009A
Perigee: 12,631.9 km
Apogee: 34,269.6 km
Inclination: 10.0 °
Period: 854.2 minutes
Semi major axis: 29821 km
RCS: 0.2528 m2 (medium)
Launch date: February 6, 1979
Source: Japan (JPN)
Launch site: TANEGASHIMA SPACE CENTER (TNSTA)
aabbcc
Your satellite tracking list
Your tracking list is empty




NASA's NSSDC Master Catalog

Two Line Element Set (TLE):
1 11261U 79009A   20339.56944243 -.00000069  00000-0  00000-0 0  9996
2 11261  10.0104  51.0946 3627849 273.8160  82.8766  1.68578830142099
Source of the keplerian elements: AFSPC